Regional Weather Roundup
Issued by NWS Newport/Morehead, NC

Home | Current Version | Previous Version | Text Only | Print | Product List | Glossary On
Versions: 1 2 3 4 5 6 7 8 9 10 11 12 13 14 15 16 17 18 19 20 21 22 23 24 25 26 27 28 29 30 31 32 33 34 35 36 37 38 39 40 41 42 43 44 45 46 47 48 49 50
000
ASUS42 KMHX 270125
RWRMHX
WEATHER ROUNDUP FOR EASTERN NORTH CAROLINA
NATIONAL WEATHER SERVICE NEWPORT/MOREHEAD CITY NC
900 PM EDT FRI MAY 26 2017

NOTE: "FAIR" INDICATES FEW OR NO CLOUDS BELOW 12,000 FEET
WITH NO SIGNIFICANT WEATHER AND/OR OBSTRUCTIONS TO VISIBILITY

NCZ015>017-031-032-045>047-102-103-270200-
NORTH COAST

CITY           SKY/WX    TMP DP  RH WIND       PRES   REMARKS
EDENTON        CLEAR     74  60  60 CALM      29.91R
ELIZABETH CITY CLEAR     72  60  66 S3        29.89R
KITTY HAWK     CLEAR     73  61  65 CALM      29.89R
MANTEO         CLEAR     73  60  65 NW3       29.90S

$$

NCZ045>047-081-094-103-104-270200-
CENTRAL COAST

CITY           SKY/WX    TMP DP  RH WIND       PRES   REMARKS
FRISCO         PTCLDY    75  65  70 SW9       29.91R

$$

NCZ095-097-098-100-101-270200-
SOUTHERN COAST

CITY           SKY/WX    TMP DP  RH WIND       PRES   REMARKS
BEAUFORT       CLEAR     74  69  85 SW10      29.92R
CEDAR ISLAND   NOT AVBL
JACKSONVILLE   CLEAR     72  61  68 SW3       29.91R
PINEY ISLAND   CLEAR    N/A N/A N/A SW6       29.91R
WILMINGTON     CLEAR     73  64  73 SW8       29.93R


$$

NCZ011>013-027>030-043-044-078>080-089-090>093-098-270200-
COASTAL PLAIN

CITY           SKY/WX    TMP DP  RH WIND       PRES   REMARKS
AHOSKIE        NOT AVBL
CLINTON        CLEAR     72  61  68 CALM      29.92S
ELIZABETHTOWN  CLEAR     74  58  58 CALM      29.93R
GOLDSBORO      NOT AVBL
GREENVILLE     CLEAR     72  59  64 CALM      29.93S
HAVELOCK       CLEAR     74  55  51 CALM      29.92R
KENANSVILLE    CLEAR     68  61  77 CALM      29.92R
KINSTON        CLEAR     70  59  68 CALM      29.92R
NEW BERN       CLEAR     68  62  81 CALM      29.92R
RICHLANDS      CLEAR     69  61  75 CALM      29.92R
ROCKY MOUNT    CLEAR     68  61  78 CALM      29.91R
WASHINGTON     CLEAR     70  58  66 CALM      29.91R
WHITEVILLE     CLEAR     73  59  61 CALM      29.93S

$$

AMZ130-135-150-152-154-156-158-170-250-252-270-ANZ085-086-088-633-658-670-270200-
MARINE OBSERVATIONS

STATION/POSITION TIME  TEMP    WIND        PRES    WAVE   SWELL
                       AIR SEA DIR/SP/G            HT/PER HT/PER
                 (UTC) (F)     (DEG/KT/KT) (MB)    (FT/S) (FT/S)
CHESAPEAKE LIGHT NOT AVBL
64 E VA BEACH    0050   65 63  230/  8/  8 1011.8    4/ 7   3/ 7
DUCK             0100   74 62  260/  6/  8 1011.7
2 E DUCK         0100      64                N/A     1/ 8
OREGON INLET     0100   73 74  250/  4/  5 1012.5
13E OREGON INLT  0018      65                N/A     2/ 7   2/ 7
HATTERAS CG      0100   73 73  230/ 10/ 13 1012.9
DIAMOND BUOY     0050   76 80  250/ 17/ 19 1012.6    6/ 7   2/11
CAPE LOOKOUT     0100   73     240/ 13/ 18 1012.9
BEAUFORT LAB     0100   74 71  250/  7/ 12 1012.5
30 SE NEW RVR IN 0108   75 78  250/ 19/ 25 1013.3
30 SE NEW RVR IN 0043      78                N/A     7/ 6
27 SE WRIGHTSVLE 0108   74 76  230/ 17/ 23 1013.0
5 SE WRIGHTSVLE  0108   74 74  220/ 12/ 17 1013.4
225 S CAPE HAT   0050   77 77  250/ 12/ 16 1016.0    5/ 7   5/ 7
41 SE CHARLESTON 0100   74 75  230/ 16/ 17 1014.5

$$




USA.gov is the U.S. government's official web portal to all federal, state and local government web resources and services.